Regional Weather Roundup
Issued by NWS

Home | Current Version | Previous Version | Graphics & Text | Print | Product List | Glossary On
Versions: 1 2 3 4 5 6 7 8 9 10 11 12 13 14 15 16 17 18 19 20 21 22 23 24 25 26 27 28 29 30 31 32 33 34 35 36 37 38 39 40 41 42 43 44 45 46 47 48 49 50
725
ASUS43 KLOT 291308
RWRIL

ILLINOIS REGIONAL WEATHER ROUNDUP
NATIONAL WEATHER SERVICE CHICAGO/ROMEOVILLE IL
800 AM CDT FRI JUL 29 2016

NOTE: "FAIR" INDICATES FEW OR NO CLOUDS BELOW 12,000 FEET WITH NO
SIGNIFICANT WEATHER AND/OR OBSTRUCTIONS TO VISIBILITY.

* THESE STATIONS ARE NOT UNDER NWS QUALITY CONTROL. THEY ALSO MAY NOT
  REPORT WEATHER SUCH AS PRECIPITATION OR FOG.

ILZ001-002-007-009-015-016-024-291400-
NORTHWEST ILLINOIS

CITY           SKY/WX    TMP DP  RH WIND       PRES   REMARKS
MOLINE         CLOUDY    73  68  84 W3        29.93R
STERLING*      CLOUDY    70  68  93 E6        29.94R
SAVANNA*       CLOUDY    69  65  87 NE5       29.94R
$$

ILZ003-004-008-010-011-017-018-291400-
NORTH CENTRAL ILLINOIS

CITY           SKY/WX    TMP DP  RH WIND       PRES   REMARKS
ROCKFORD       CLOUDY    73  66  78 NE7       29.95S
FREEPORT*      CLOUDY    66  64  91 NE7       29.96F
ROCHELLE*      CLOUDY    68  68  99 NE7       29.95R FOG
DE KALB*       CLOUDY    70  70  99 NE3       29.96R FOG
$$

ILZ005-006-012>014-019>023-291400-
NORTHEAST ILLINOIS

CITY           SKY/WX    TMP DP  RH WIND       PRES   REMARKS
CHICAGO-OHARE  PTSUNNY   74  69  85 NE6       29.93R
CHICAGO-MIDWAY PTSUNNY   77  70  79 NE5       29.92S
AURORA         CLOUDY    73  69  87 E6        29.93S FOG
LANSING*       SUNNY     73  68  82 CALM      29.93R
JOLIET*        MOSUNNY   74  71  89 NE5       29.92F FOG
WAUKEGAN       MOSUNNY   73  68  84 E8        29.93F
DUPAGE AIRPORT PTSUNNY   73  68  84 NE5       29.93S
KANKAKEE*      PTSUNNY   71  67  89 CALM      29.92F
WHEELING       CLOUDY    73  69  87 CALM      29.94S
MORRIS*        CLOUDY    72  70  95 CALM      29.91F FOG
ROMEOVILLE*    CLOUDY    72  68  89 E5        29.93S FOG
NORTHERLY ISL    N/A     75  68  78 NE7         N/A
$$

LMZ740>746-291400-
SOUTHERN LAKE MICHIGAN

STATION/POSITION SKY/WX   TEMP    WIND        PRES    VSBY  WAVE
                          AIR SEA DIR/SP/G                  HT/PER
                          (F)     (DEG/KT/KT) (MB)    (MI)  (FT/S)
SOUTHERN BUOY              71 75   90/ 17/ 21 1013.1R         3/ 5
WILMETTE HARBOR            74 73   90/  8/ 10   N/A           2/ 6
HARRISON CRIB              75      50/  9/ 10   N/A
BURNHAM HARBOR             75      60/  7/  7   N/A
CALUMET HARBOR             73      20/  2/  3 1012.6R
BURNS HARBOR               72      50/  1/  6 1013.9R
MICHIGAN CITY              69      20/  4/  4   N/A
MICHIGAN CITY 6N           72 77   90/  4/  6   N/A           2/ 6
ST. JOSEPH                 70 76  110/  6/  8 1013.4R         2
$$

ILZ025>027-034>036-040-047-049-050-058-095>099-291400-
WEST-CENTRAL ILLINOIS

CITY           SKY/WX    TMP DP  RH WIND       PRES   REMARKS
QUINCY         SUNNY     69  68  96 W5        29.97R
GALESBURG*     CLOUDY    67  67  99 CALM      29.95R FOG
MACOMB*        FOG       65  65 100 CALM      29.97R VSB 1/4
JACKSONVILLE*  CLOUDY    69  67  93 W3        29.96R
PITTSFIELD*    CLOUDY    69  67  93 W3        29.98R
$$

ILZ028>032-037-038-041>044-048-051>054-059>061-291400-
CENTRAL ILLINOIS

CITY           SKY/WX    TMP DP  RH WIND       PRES   REMARKS
PONTIAC        CLOUDY    73  73 100 CALM      29.93S FOG
BLOOMINGTON    SUNNY     72  69  90 NE6       29.94R
DECATUR        SUNNY     75  69  81 CALM      29.94R
PEORIA         FOG       68  68 100 VRB3      29.93R VSB 1/4
LACON*         CLOUDY    69  68  97 CALM      29.93R FOG
LINCOLN*       SUNNY     72  70  94 CALM      29.93S
SPRINGFIELD    CLOUDY    72  68  87 CALM      29.94R
TAYLORVILLE    CLOUDY    72  70  93 MISG      29.95R
$$

ILZ033-039-045-046-055>057-062-063-291400-
EAST-CENTRAL ILLINOIS

CITY           SKY/WX    TMP DP  RH WIND       PRES   REMARKS
CHAMPAIGN      FOG       70  69  97 W5        29.93S VSB 1/4
MATTOON        SUNNY     73  69  87 CALM      29.93R
PARIS*         CLOUDY    70  70 100 CALM      29.94S FOG
$$

ILZ079-100>102-291400-
SOUTHWEST ILLINOIS

CITY           SKY/WX    TMP DP  RH WIND       PRES   REMARKS
ALTON          MOSUNNY   72  68  88 NE6       29.96R
BELLEVILLE     SUNNY     76  73  90 VRB5      29.94R
CAHOKIA*       MOSUNNY   77  69  76 N7        29.96R
SPARTA*        SUNNY     74  71  91 CALM      29.96R
$$

ILZ064>066-069>071-074>076-080>082-084>086-088>090-092>094-291400-
SOUTH-CENTRAL ILLINOIS

CITY           SKY/WX    TMP DP  RH WIND       PRES   REMARKS
CARBONDALE     SUNNY     75  72  90 S3        29.93S
CAIRO*         SUNNY     75  73  93 SW5       29.95R
EFFINGHAM*     SUNNY     74  73  99 CALM      29.94S
MARION         MOSUNNY   75  75 100 SW6       29.94R
MT. VERNON     CLOUDY    73  68  83 MISG      29.92F
CENTRALIA*     SUNNY     75  73  92 N3        29.92S
SALEM*         SUNNY     75  71  86 N3        29.93S
METROPOLIS*    MOSUNNY   76  73  88 SW5       29.95R
$$

ILZ067-068-072-073-078-083-087-091-291400-
SOUTHEAST ILLINOIS

CITY           SKY/WX    TMP DP  RH WIND       PRES   REMARKS
LAWRENCEVILLE  PTSUNNY   72  71  97 CALM      29.93S
FLORA*         MOSUNNY   73  71  96 CALM      29.93S
FAIRFIELD*     CLOUDY    72  72  99 CALM      29.92S
HARRISBURG*    CLOUDY    75  73  96 CALM      29.94S
ROBINSON*      CLOUDY    69  69 100 CALM      29.94S FOG
CARMI*         MOSUNNY   73  73  98 CALM      29.93S
$$

ABBREVIATIONS USED IN REMARKS
   TC - TEMPERATURE IN CELSIUS
  WCI - WIND CHILL INDEX
   HX - HEAT INDEX
  VSB - VISIBILITY
$$





USA.gov is the U.S. government's official web portal to all federal, state and local government web resources and services.